GLOBALSTAR M068 [-]

Last updated on July 6, 2021, 3:36 p.m. UTC

1 32266U 07048D   21186.92915148 -.00000098  00000-0  32968-4 0  9995
2 32266  51.9909  18.2737 0001195 125.5822  22.0949 12.62724792635465
UTC
Height (km)
Latitude
Longitude
Inclination
Orbital Period
UTC large
Height (km)
Speed (km/s)
/
Latitude / Longitude
Inclination (degrees)
Orbital Period (minutes)
Azimuth
Elevation
Range (km)
Doppler Factor
iOS Compass Heading
iOS Angle